sat.trackr.live / text

‹ back to catalog

STARLINK-34015

NORAD 63854 · 2025-093U

PAYLOAD ACTIVE UNKNOWN

§ Identity

Operator
Country
US
Launch date
2025-05-07
Launch site
AFETR
Launch vehicle
Mass (kg)
RCS (m²)

Purposes: comms

External: N2YO · Heavens-Above · Gunter

§ Orbital elements

Epoch: 2026-05-25T00:45:25.245216Z

Period
94.27 min
Inclination
43.0006°
Eccentricity
0.0001888
Mean motion
15.27594121 rev/d
Perigee alt
481.7 km
Apogee alt
484.3 km
Semi-major
6,861.1 km
B*
9.2107e-4
RAAN
7.0920°
Arg perigee
261.5244°
Mean anomaly
98.5394°
Rev number
5,948

§ Raw data

STARLINK-340151 63854U 25093U   26145.03154219  .00025181  00000+0  92107-3 0  99962 63854  43.0006   7.0920 0001888 261.5244  98.5394 15.27594121 59489

JSON: /api/v1/satellites/63854 · /tle

For live sub-satellite position, see the globe view (requires WebGL).

§ Visibility from observer

Set your observer location to see the next 7 days of passes ≥ 10°. The values pass through the URL so the page stays shareable.

No JS? Fill the form by hand. The geolocation button needs JavaScript.